Regional Weather Roundup
Issued by NWS Midland/Odessa, TX

Home | Current Version | Previous Version | Text Only | Print | Product List | Glossary On
Versions: 1 2 3 4 5 6 7 8 9 10 11 12 13 14 15 16 17 18 19 20 21 22 23 24 25 26 27 28 29 30 31 32 33 34 35 36 37 38 39 40 41 42 43 44 45 46 47 48 49 50
000
ASUS44 KMAF 301010
RWRMAF
MIDLAND AREA WEATHER ROUNDUP
NATIONAL WEATHER SERVICE MIDLAND TX
500 AM CDT THU JUL 30 2015

...IN SOUTHWEST TEXAS AND SOUTHEAST NEW MEXICO...

CITY           SKY/WX    TMP DP  RH WIND       PRES   REMARKS
ALPINE         PTCLDY    73  54  51 SE5       30.27S
ANDREWS        FAIR      76  60  58 CALM      30.16S
ARTESIA        PTCLDY    73  64  73 N20       30.20R
BIG SPRING     PTCLDY    75  54  46 SE7       30.15R
CARLSBAD       CLEAR     71  59  65 SW6       30.14R
DRYDEN           N/A     78  58  49 NW6       30.07S
FORT STOCKTON  PTCLDY    76  55  48 S13       30.11F
GUAD PASS      PTCLDY    72  53  51 NE8       30.31R
HOBBS          PTCLDY    75  63  64 CALM      30.20R
MARFA          MOCLDY    66  59  77 NW3       30.26S
MIDLAND AIRPK  CLEAR     80  57  44 CALM      30.14S
MIDLAND INTL   CLEAR     77  58  51 SE6       30.13S
ODESSA         CLEAR     78  54  43 S6        30.15S
PECOS          PTCLDY    77  54  44 NE7       30.10R
PRESIDIO       FAIR      78  61  56 CALM      30.09S
SEMINOLE       PTCLDY    72  60  66 S5        30.18S
SNYDER         MOCLDY    78  64  61 SW6       30.13F
WINK           PTCLDY    76  53  44 E5        30.11S
$$
...OTHER STATIONS IN TEXAS...

CITY           SKY/WX    TMP DP  RH WIND       PRES   REMARKS
ABILENE        CLEAR     77  62  59 SE7       30.10R
AMARILLO       CLOUDY    70  67  90 NE6       30.24R FOG
AUSTIN         PTCLDY    73  71  93 S3        30.04S
BROWNSVILLE    CLEAR     77  75  93 CALM      29.99F FOG
CORPUS CHRISTI PTCLDY    70  68  94 S3        30.00F FOG
DALLAS FTW     CLEAR     81  66  60 SE3       30.04R
DEL RIO        CLEAR     80  70  71 E7        30.03S
EL PASO        TSTM      68  66  93 W8        30.22F FOG
HOUSTON INT    PTCLDY    80  76  87 W7        30.02S
LUBBOCK        PTCLDY    74  63  68 NE6       30.17S
SAN ANGELO     CLEAR     77  61  57 S6        30.09S
SAN ANTONIO    CLEAR     77  70  79 CALM      30.06S
WACO           CLEAR     78  68  71 CALM      30.04S
WICHITA FALLS  NOT AVBL
$$
...OTHER LOCATIONS IN NEW MEXICO...

CITY           SKY/WX    TMP DP  RH WIND       PRES   REMARKS
ALAMAGORDO     MOCLDY    70  63  78 N17       30.24F
ALBUQUERQUE    CLOUDY    67  57  70 E13       30.36R
CANNON AFB     MOCLDY    66  64  94 N13       30.27S
CLOVIS         MOCLDY    68  61  77 N10       30.29S
HOLLOMAN AFB   MOCLDY    71  62  74 N14       30.23F
ROSWELL        PTCLDY    71  63  75 N16       30.22R
RUIDOSO          N/A    N/A N/A N/A MISG        N/A
SANTA FE       NOT AVBL
TRUTH OR CONSE CLOUDY    64  63  96 E7        30.28F
TUCUMCARI      RAIN      65  63  93 NW12      30.30R FOG
$$


USA.gov is the U.S. government's official web portal to all federal, state and local government web resources and services.